Location: Unspecified
(49.2170°N, 0.0000°E)
Time: 08:17:06
(UTC+00:00)

Vanguard 3 - Pass Details

Date: 21 January 2021
Orbit: 508 x 3262 km, 33.4° (Epoch: 08 March)

Event Time Altitude Azimuth Distance (km) Brightness Sun altitude
Rises 03:28:56 0° 203° (SSW) 3,705 - -41.1°
Reaches altitude 10° 03:32:06 10° 184° (S) 3,127 - -40.6°
Exits shadow 03:35:28 18° 158° (SSE) 2,968 10.0 -40.1°
Maximum altitude 03:37:20 19° 143° (SE) 3,100 10.2 -39.8°
Drops below altitude 10° 03:44:30 10° 105° (ESE) 4,523 11.5 -38.6°
Sets 03:50:33 0° 92° (E) 6,100 12.5 -37.7°
